This demonstration page uses our WeatherBlox Daily Observations layout. Learn more.

Left ArrowRight Arrow

38.88101, -77.10428

Hourly Observations for November 10, 2021

Temp ( °F °C ) Dew Point ( °F °C ) Humidity (%) Winds ( mph kmh ) Pressure ( in mb ) Visibility ( mi km ) Precip ( " mm )
12:52 am 00:52 Partly Cloudy 50 10 44 6.7 80 80 SW 3 6 30.05 1018 10 16 0.00 0.00
1:52 am 01:52 Partly Cloudy 52 11.1 45 7.2 77 77 S 3 6 30.04 1017 10 16 0.00 0.00
2:52 am 02:52 Partly Cloudy 50 10 46 7.8 86 86 Calm 30.04 1017 10 16 0.00 0.00
3:52 am 03:52 Partly Cloudy 51 10.6 48 8.9 89 89 Calm 30.05 1018 10 16 0.00 0.00
4:52 am 04:52 Cloudy 51 10.6 48 8.9 89 89 Calm 30.07 1018 10 16 0.00 0.00
5:52 am 05:52 Cloudy 52 11.1 48 8.9 86 86 S 10 17 30.08 1019 10 16 0.00 0.00
6:52 am 06:52 Cloudy 55 12.8 46 7.8 72 72 Calm 30.10 1019 10 16 0.00 0.00
7:52 am 07:52 Mostly Cloudy 64 17.8 42 5.6 45 45 W 6 9 30.12 1020 10 16 0.00 0.00
8:52 am 08:52 Mostly Cloudy 66 18.9 43 6.1 43 43 W 7 11 30.15 1021 10 16 0.00 0.00
9:52 am 09:52 Mostly Sunny 68 20 44 6.7 42 42 NW 9 15 30.15 1021 10 16 0.00 0.00
10:52 am 10:52 Mostly Sunny 69 20.6 45 7.2 42 42 NW 15 24 30.14 1021 10 16 0.00 0.00
11:52 am 11:52 Mostly Sunny 70 21.1 46 7.8 42 42 WNW 9 15 30.14 1021 10 16 0.00 0.00
12:52 pm 12:52 Mostly Sunny 71 21.7 46 7.8 41 41 NW 8 13 30.12 1020 10 16 0.00 0.00
1:52 pm 13:52 Sunny 72 22.2 46 7.8 40 40 undefined N/A 30.12 1020 10 16 0.00 0.00
2:19 pm 14:19 Sunny 72 22.2 46 7.8 40 40 NNW 5 7 30.12 1020 10 16 0.00 0.00
2:52 pm 14:52 Sunny 72 22.2 46 7.8 40 40 NNE 3 6 30.12 1020 10 16 0.00 0.00
3:52 pm 15:52 Sunny 71 21.7 46 7.8 41 41 Calm 30.14 1021 10 16 0.00 0.00
4:52 pm 16:52 Sunny 68 20 45 7.2 44 44 WNW 5 7 30.15 1021 10 16 0.00 0.00
5:52 pm 17:52 Clear 62 16.7 46 7.8 56 56 ENE 3 6 30.17 1022 10 16 0.00 0.00
6:52 pm 18:52 Clear 59 15 47 8.3 64 64 NE 5 7 30.18 1022 10 16 0.00 0.00
7:52 pm 19:52 Clear 59 15 47 8.3 64 64 NE 3 6 30.19 1022 10 16 0.00 0.00
8:52 pm 20:52 Clear 55 12.8 48 8.9 77 77 N 3 6 30.19 1023 10 16 0.00 0.00
9:52 pm 21:52 Clear 53 11.7 47 8.3 80 80 Calm 30.22 1023 10 16 0.00 0.00
10:52 pm 22:52 Clear 53 11.7 47 8.3 80 80 Calm 30.22 1023 10 16 0.00 0.00
11:52 pm 23:52 Mostly Clear 51 10.6 45 7.2 80 80 N 6 9 30.22 1024 10 16 0.00 0.00

Powered by AerisWeather